Location: Bertincourt
(50.0858°N, 2.9814°E)
Time: 16:36:17
(UTC+00:00)

Daily predictions for brighter satellites

Satellite Brightness Start Highest point End
(mag) Time Altitude Azimuth Time Altitude Azimuth Time Altitude Azimuth
STARLINK-1106 4.3 18:52:02 10° WNW 18:56:04 50° SSW 19:00:04 10° SE
Ariane Rocket 3.0 18:51:57 10° SSE 18:57:01 76° ENE 19:02:06 10° NNW
STARLINK-1138 3.8 18:53:24 10° WSW 18:57:32 74° NNW 19:01:42 10° ENE
Abrixas rocket 2.7 18:55:26 10° SW 18:58:12 37° SSE 19:00:59 10° E
Aureole 2 Rocket 2.5 18:55:22 10° NNW 18:58:52 58° ENE 19:02:15 10° SE
STARLINK-67 3.4 18:56:27 10° WNW 18:58:55 39° N 19:01:24 10° ENE
Cosmos 1544 Rocket 3.7 18:55:40 10° S 19:00:06 86° W 19:04:35 10° N
Cosmos 2074 Rocket 4.4 18:54:16 10° N 19:00:14 43° ENE 19:06:12 10° SE
STARLINK-1112 4.4 18:57:03 10° WNW 19:01:01 47° SSW 19:05:00 10° SE
ATLAS 2AS CENTAUR R/B 3.4 18:54:06 10° NW 19:01:37 49° NNE 19:08:36 10° ESE
STARLINK-1143 3.9 18:58:20 10° W 19:02:28 72° NNW 19:06:38 10° ENE
ISS -2.9 19:00:28 10° WNW 19:03:42 45° SSW 19:06:56 10° SE
Cosmos 1943 4.1 18:59:30 10° SSE 19:04:10 27° ESE 19:08:53 10° NE
Cosmos 1825 Rocket 4.4 19:01:12 10° N 19:05:12 32° ENE 19:09:09 10° SE
USA 234 4.2 19:02:02 10° ENE 19:07:06 23° SE 19:12:08 10° S
STARLINK-1241 3.9 19:03:23 10° W 19:07:31 69° NNW 19:11:41 10° ENE
SL-08 RB Rocket 4.0 19:04:57 10° SE 19:09:20 50° ENE 19:13:47 10° N
STARLINK-1239 3.9 19:08:23 10° W 19:12:31 67° NNW 19:16:40 10° ENE
SPOT 3 Rocket 3.9 19:08:32 10° SE 19:13:32 49° ENE 19:18:32 10° N
Cosmos 1758 Rocket 3.8 19:12:51 10° N 19:17:05 47° ENE 19:21:15 10° SSE
SeaSat 1 3.3 19:12:24 10° NNE 19:17:14 56° NW 19:22:04 10° SW
STARLINK-1240 4.0 19:13:22 10° W 19:17:30 65° NNW 19:21:38 10° ENE
SJ-6B 2.9 19:15:43 10° SSE 19:19:48 72° ENE 19:23:57 10° N
IRIDIUM 106 4.4 19:16:12 10° N 19:21:24 63° E 19:26:34 10° SSE
MOS 1 Rocket 4.4 19:17:48 10° NNE 19:22:28 30° E 19:27:11 10° SSE
STARLINK-1216 4.0 19:18:23 10° W 19:22:30 64° NNW 19:26:38 10° ENE
CZ-4C R/B 4.3 19:17:46 10° WNW 19:22:43 25° N 19:28:26 10° NE
Cosmos 1953 Rocket 4.3 19:20:06 10° N 19:24:13 35° ENE 19:27:53 12° SE
SL-16 R/B 2.8 19:19:35 10° SW 19:25:11 61° WNW 19:30:49 10° NNE
STARLINK-1237 4.0 19:23:23 10° W 19:27:30 62° N 19:31:38 10° ENE
Cosmos 1818 4.3 19:24:23 10° S 19:29:02 30° ESE 19:33:44 10° NE
CZ-2C R/B 3.1 19:24:30 10° S 19:29:27 77° WSW 19:34:15 10° NNW
Cosmos 1606 Rocket 4.2 19:25:54 10° SSE 19:29:55 35° E 19:33:59 10° NNE
MOS 1 4.5 19:24:53 10° SSE 19:30:32 78° WSW 19:36:15 10° NNW
Cosmos 1758 3.8 19:26:36 10° SSW 19:30:41 68° WNW 19:34:46 10° N
STARLINK-1233 3.7 19:28:57 10° WNW 19:32:01 46° N 19:34:36 13° ENE
STARLINK-1212 3.7 19:29:25 10° WNW 19:32:28 46° N 19:35:01 13° ENE
STARLINK-1202 4.1 19:28:22 10° W 19:32:29 61° N 19:36:33 10° ENE
STARLINK-1105 3.7 19:29:52 10° WNW 19:32:55 46° N 19:35:29 14° ENE
STARLINK-1206 3.7 19:30:21 10° WNW 19:33:22 46° N 19:35:53 14° ENE
STARLINK-1203 4.1 19:29:44 10° W 19:33:49 59° N 19:37:45 11° ENE
STARLINK-1247 3.7 19:30:47 10° WNW 19:33:50 46° N 19:36:19 14° ENE
STARLINK-1227 3.7 19:31:12 10° WNW 19:34:15 46° N 19:36:45 14° ENE
SL-24 R/B 4.2 19:30:12 10° NNE 19:34:26 45° E 19:38:11 10° S
CZ-2C R/B 3.2 19:29:52 10° NNE 19:34:34 34° E 19:39:15 10° SSE
STARLINK-1218 3.7 19:31:42 10° WNW 19:34:45 46° N 19:37:11 14° ENE
STARLINK-1226 3.7 19:32:08 10° WNW 19:35:10 46° N 19:37:37 14° ENE
Cosmos 1656 Rocket 3.8 19:29:57 10° NNW 19:35:36 62° ENE 19:40:14 15° SE
STARLINK-1254 3.7 19:32:34 10° WNW 19:35:37 46° N 19:38:04 15° ENE
Cosmos 2228 3.5 19:32:01 10° SSE 19:35:58 37° E 19:39:58 10° NNE
STARLINK-1215 3.7 19:33:03 10° WNW 19:36:07 46° N 19:38:30 15° ENE
STARLINK-1231 3.7 19:33:32 10° WNW 19:36:34 46° N 19:38:56 15° ENE
Meteor 1-21 Rocket 4.3 19:31:04 10° NNW 19:36:39 81° W 19:42:10 10° S
Cosmos 1992 Rocket 4.2 19:31:58 10° NNW 19:37:11 71° WSW 19:42:21 10° SSE
STARLINK-1232 3.7 19:34:25 10° WNW 19:37:27 46° N 19:39:48 15° ENE
STARLINK-1217 3.7 19:34:52 10° WNW 19:37:54 46° N 19:40:14 15° ENE
STARLINK-1208 3.7 19:35:17 10° WNW 19:38:20 46° N 19:40:40 15° ENE
STARLINK-1229 3.7 19:35:45 10° WNW 19:38:47 46° N 19:41:04 16° ENE
STARLINK-1271 3.7 19:36:13 10° WNW 19:39:15 46° N 19:41:32 16° ENE
STARLINK-1270 3.7 19:36:40 10° WNW 19:39:43 46° N 19:41:57 16° ENE
STARLINK-1154 3.7 19:37:07 10° WNW 19:40:09 46° N 19:42:23 16° ENE
STARLINK-1197 3.7 19:38:01 10° WNW 19:41:03 46° N 19:43:15 17° ENE
STARLINK-1189 3.7 19:38:29 10° WNW 19:41:32 46° N 19:43:42 17° ENE
STARLINK-1198 3.7 19:38:56 10° WNW 19:41:58 46° N 19:44:07 17° ENE
STARLINK-1188 3.7 19:39:23 10° WNW 19:42:25 46° N 19:44:33 17° ENE
STARLINK-1246 4.1 19:38:21 10° W 19:42:27 59° N 19:46:06 13° ENE
ARGOS 3.5 19:37:09 10° S 19:42:31 66° WSW 19:47:54 10° NNW
STARLINK-1235 3.6 19:40:04 10° WNW 19:43:08 47° N 19:45:11 18° ENE
STARLINK-1187 3.7 19:40:22 10° WNW 19:43:27 47° N 19:45:33 18° ENE
BREEZE-M DEB (TANK) 3.7 19:37:11 10° W 19:44:10 69° SSW 19:45:57 24° ESE
COSMOS 2455 3.7 19:38:40 10° NNW 19:44:16 37° NE 19:48:18 17° E
STARLINK-1199 3.7 19:41:19 10° WNW 19:44:23 47° N 19:46:28 18° ENE
SL-4 R/B 3.4 19:42:20 10° S 19:43:45 16° SSE 19:43:45 16° SSE
MetOp-A 4.1 19:39:17 10° SSE 19:44:37 79° ENE 19:50:00 10° NNW
STARLINK-1191 3.7 19:41:47 10° WNW 19:44:50 46° N 19:46:54 18° ENE
STARLINK-1201 3.7 19:41:57 10° WNW 19:45:07 48° N 19:47:21 18° ENE
STARLINK-1210 3.7 19:42:14 10° WNW 19:45:17 47° N 19:47:20 18° ENE
STARLINK-1221 3.7 19:42:41 10° WNW 19:45:44 47° N 19:47:46 18° ENE
STARLINK-1219 3.7 19:43:07 10° WNW 19:46:12 47° N 19:48:13 19° ENE
STARLINK-1222 3.7 19:43:35 10° WNW 19:46:39 47° N 19:48:38 19° ENE
STARLINK-1211 3.7 19:44:03 10° WNW 19:47:06 47° N 19:49:04 19° ENE
Cosmos 1603 3.6 19:41:54 10° SSW 19:47:29 68° ESE 19:53:04 10° NNE
STARLINK-1224 4.1 19:43:24 10° W 19:47:30 58° N 19:50:56 14° ENE
STARLINK-1214 3.7 19:44:30 10° WNW 19:47:33 47° N 19:49:31 19° ENE
USA 186 3.4 19:44:29 10° SSW 19:47:38 37° W 19:50:43 10° NNW
STARLINK-1234 3.5 19:44:58 10° WNW 19:47:56 47° N 19:49:39 21° ENE
STARLINK-1228 3.5 19:45:09 10° WNW 19:47:58 46° N 19:49:30 22° ENE
STARLINK-1245 3.7 19:44:58 10° WNW 19:48:00 46° N 19:49:55 20° ENE
Cosmos 1726 2.0 19:44:33 10° S 19:48:16 75° E 19:52:01 10° NNE
STARLINK-1238 3.7 19:45:23 10° WNW 19:48:28 47° N 19:50:23 20° ENE
Cosmos 1340 Rocket 3.9 19:47:46 23° ESE 19:48:46 25° E 19:52:07 10° NE
STARLINK-1205 3.7 19:46:20 10° WNW 19:49:23 46° N 19:51:14 20° ENE
STARLINK-1204 3.6 19:46:47 10° WNW 19:49:49 46° N 19:51:39 20° ENE
ERS-1 Rocket 4.5 19:47:59 16° E 19:50:01 20° ENE 19:53:39 10° N
H-2A R/B 3.1 19:46:23 10° S 19:51:26 47° W 19:56:22 10° NNW
STARLINK-1225 4.1 19:48:21 10° W 19:52:28 57° N 19:55:41 16° ENE
Cosmos 1328 3.8 19:48:40 10° N 19:52:41 65° ENE 19:55:27 19° SSE
Meteor 1-16 Rocket 4.1 19:49:03 10° S 19:54:24 71° E 19:59:55 10° NNE
Resurs 1-3 3.5 19:51:23 12° SSE 19:55:24 85° ENE 19:59:49 10° NNW
Cosmos 2184 Rocket 4.1 19:50:37 10° N 19:56:58 84° W 20:03:13 10° S
STARLINK-1230 4.1 19:53:22 10° W 19:57:28 57° N 20:00:28 17° ENE
STARLINK-1209 3.4 19:55:22 10° WNW 19:58:15 48° N 19:59:26 29° ENE
STARLINK-1243 4.1 19:58:21 10° W 20:02:27 56° N 20:05:15 19° ENE
ATLAS CENTAUR R/B 4.0 20:01:21 10° N 20:02:36 11° N 20:03:50 10° NNE
Meteor 2-10 4.2 19:58:34 10° SSW 20:04:00 85° WNW 20:09:40 10° NNE
Cosmos 1703 3.2 20:00:10 10° N 20:04:09 89° ENE 20:06:52 20° S
Cosmos 1461 3.6 20:01:35 10° NNW 20:05:55 47° NE 20:07:55 28° E
ERBS 4.1 20:03:48 10° NW 20:06:41 25° N 20:08:37 16° NE
STARLINK-1236 4.1 20:03:24 10° W 20:07:30 56° N 20:10:04 21° ENE
Cosmos 1953 3.3 20:04:21 10° SSW 20:08:11 48° WNW 20:12:05 10° N
DMSP B5D2-2 4.0 20:03:55 10° NNE 20:09:10 75° ESE 20:14:23 10° S
Cosmos 2251 Rocket 4.0 20:05:19 10° SW 20:10:39 65° WNW 20:16:02 10° NNE
Cosmos 967 Rocket 4.5 20:04:24 10° SSW 20:10:52 84° SE 20:17:24 10° NE
Resurs 01 Rocket 1.6 20:12:28 22° SSE 20:15:21 86° WSW 20:19:48 10° NNW
APEX 4.4 20:09:33 10° NNW 20:16:27 79° ENE 20:19:41 29° SE
STARLINK-1269 4.1 20:13:21 10° W 20:17:27 56° N 20:19:36 26° ENE
Cosmos 1437 4.4 20:14:48 10° NNW 20:17:32 30° W 20:19:45 13° SSW
Cosmos 2154 Rocket 4.0 20:12:26 10° N 20:18:51 88° W 20:24:20 15° S
NOSS 3-4 (A) 3.8 20:13:34 10° NW 20:20:30 89° NE 20:24:57 27° SE
NOSS 3-4 (C) 3.8 20:13:40 10° NW 20:20:36 89° NE 20:25:02 28° SE
Cosmos 2058 Rocket 3.1 20:18:19 26° SSE 20:20:42 60° E 20:25:10 10° NNE
USA 245 4.4 20:18:18 30° SE 20:20:58 59° ENE 20:27:06 10° N
Cosmos 2369 Rocket 3.6 20:16:27 10° NW 20:21:33 35° WSW 20:26:36 10° S
STARLINK-1200 4.1 20:18:20 10° WNW 20:22:26 56° N 20:24:22 28° ENE
Cosmos 1300 3.8 20:23:46 28° ENE 20:23:46 28° ENE 20:26:19 10° NNE
CZ-2C R/B 4.4 20:20:37 10° N 20:25:18 59° WNW 20:29:53 10° SSW
Landsat 7 4.1 20:24:18 37° ESE 20:25:40 48° ENE 20:30:16 10° N
Cosmos 962 Rocket 4.4 20:19:38 10° N 20:25:50 70° ENE 20:29:12 28° SSE
Cosmos 1943 Rocket 4.2 20:22:45 10° NW 20:27:05 24° WSW 20:31:27 10° SSW
STARLINK-1192 4.1 20:23:20 10° WNW 20:27:26 56° N 20:29:09 31° ENE
Nadezhda 1 Rocket 4.0 20:21:31 10° S 20:27:55 87° W 20:34:20 10° N
Meteor 1-11 4.4 20:24:34 10° NNW 20:30:22 76° W 20:34:22 20° S
SL-8 Rocket 4.2 20:24:12 10° N 20:30:24 53° ENE 20:32:55 34° SE
Cosmos 1908 3.4 20:27:25 15° SSW 20:30:35 71° WNW 20:34:29 10° N
NOSS 3-3 (A) 4.2 20:25:01 10° SW 20:30:59 76° NW 20:37:51 10° NE
NOSS 3-3 (C) 4.1 20:25:07 10° SW 20:31:06 76° NW 20:37:56 10° NE
STARLINK-1244 4.1 20:28:20 10° WNW 20:32:26 57° N 20:33:56 35° ENE
STARLINK-67 3.6 20:30:29 10° WNW 20:32:21 42° WNW 20:32:21 42° WNW
Abrixas rocket 2.8 20:30:41 10° W 20:32:54 44° WSW 20:32:54 44° WSW
CARTOSAT-1 4.3 20:36:52 35° ENE 20:37:03 35° ENE 20:40:59 10° N
STARLINK-1138 4.1 20:33:20 10° WNW 20:37:26 57° N 20:38:44 38° ENE
Cosmos 2058 3.8 20:34:29 10° N 20:37:54 32° ENE 20:37:54 32° ENE
SL-24 R/B - RUBIN 2 4.4 20:33:07 10° SSW 20:38:27 47° ESE 20:44:27 10° NE
Cosmos 1726 Rocket 4.0 20:35:02 10° SSW 20:39:23 61° WNW 20:43:49 10° N
SPOT 5 3.4 20:39:20 35° ENE 20:39:30 35° ENE 20:43:27 10° N
Cosmos 2366 rocket 4.2 20:34:45 10° N 20:40:44 50° ENE 20:42:31 39° ESE
STARLINK-1143 4.0 20:38:16 10° WNW 20:42:22 58° N 20:43:27 42° ENE
Cosmos 1190 Rocket 3.9 20:40:52 21° S 20:44:24 67° ESE 20:49:40 10° NNE
STARLINK-1241 4.0 20:43:19 10° WNW 20:47:26 59° N 20:48:18 47° NE
Cosmos 1943 3.8 20:42:16 10° SW 20:47:51 59° NW 20:53:30 10° NNE
Spot 2 Rocket 3.5 20:46:22 39° S 20:48:20 83° WSW 20:53:30 10° NNW
USA 234 3.1 20:44:21 10° ENE 20:50:54 70° SE 20:57:26 10° SW
Aureole 1 Rocket 4.1 20:43:36 10° SSW 20:51:21 90° SE 20:57:28 10° NNE
STARLINK-1239 4.0 20:48:18 10° WNW 20:52:26 59° N 20:53:04 52° NE
ATLAS 2AS CENTAUR R/B 3.1 20:45:27 10° NW 20:52:57 62° WSW 20:56:14 33° S
Cosmos 1140 Rocket 3.3 20:51:22 39° S 20:53:14 69° ESE 20:58:23 10° NNE
Iridium 4 Rocket 3.3 20:52:56 10° N 20:56:43 51° ENE 20:56:43 51° ENE
STARLINK-1240 3.9 20:53:17 10° WNW 20:57:24 61° N 20:57:51 56° NE
RESURS DK-1 4.2 20:56:27 10° N 20:59:34 20° NE 20:59:42 20° NE
MetOp-B 4.5 20:57:16 32° S 20:59:42 61° WSW 21:05:02 10° NNW
BREEZE M DEB (TANK) 4.1 21:02:07 42° ESE 21:02:07 42° ESE 21:12:04 10° ENE
STARLINK-1216 3.8 20:58:17 10° WNW 21:02:24 62° N 21:02:39 60° NNE
Cosmos 1697 Rocket 4.0 21:00:48 10° NNW 21:05:39 28° NE 21:06:58 25° ENE
STARLINK-1237 3.9 21:03:17 10° WNW 21:07:24 63° N 21:07:25 63° NNE
Terra 2.2 21:07:36 49° ENE 21:07:36 49° ENE 21:12:07 10° N
Cosmos 468 Rocket 4.2 21:04:11 10° NNW 21:09:16 52° ENE 21:09:34 51° ENE
Cosmos 921 Rocket 3.3 21:05:18 10° NNW 21:09:24 53° WSW 21:09:38 52° WSW
Cosmos 192 4.4 21:05:07 10° NNW 21:10:02 60° ENE 21:10:11 59° ENE
Cosmos 676 Rocket 3.9 21:12:05 70° SE 21:12:15 70° ESE 21:17:30 10° NNE
Cosmos 1818 4.1 21:06:57 10° SW 21:12:20 60° NW 21:17:46 10° NE
STARLINK-1202 3.9 21:08:16 10° WNW 21:12:12 64° N 21:12:12 64° N
CZ-4C R/B 3.9 21:07:14 10° NW 21:13:11 35° NNE 21:17:32 20° ENE
STARLINK-1203 3.9 21:09:28 10° WNW 21:13:15 64° NNW 21:13:15 64° NNW
CZ-2C R/B 3.8 21:10:08 10° N 21:14:57 39° WNW 21:19:44 10° SW
Iridium 2 4.5 21:16:00 48° N 21:16:00 48° N 21:18:52 10° N
Cosmos 407 Rocket 3.9 21:11:06 10° SW 21:16:12 61° WNW 21:21:18 10° NNE
Mayak 1.2 21:12:58 10° NE 21:13:23 12° NE 21:13:23 12° NE
IGS 5A 3.8 21:16:12 59° WSW 21:16:15 59° W 21:20:23 10° NNW
SL-08 R/B 4.4 21:10:13 10° N 21:16:19 62° ENE 21:17:08 57° ESE
BREEZE-M DEB (TANK) 4.3 21:14:02 10° W 21:14:47 15° W 21:14:47 15° W
SPOT 1/Viking Rocket 3.7 21:17:02 56° SSW 21:18:02 71° WSW 21:23:17 10° NNW
STARLINK-1246 4.1 21:18:12 10° WNW 21:21:45 58° NW 21:21:45 58° NW
Cosmos 1821 Rocket 4.4 21:17:21 10° N 21:23:27 46° ENE 21:23:55 45° E
Cosmos 1340 Rocket 4.4 21:23:18 23° WSW 21:25:05 33° WNW 21:28:48 10° N
STARLINK-1224 4.3 21:23:14 10° WNW 21:26:35 53° NW 21:26:35 53° NW
ERS-1 Rocket 3.0 21:27:58 69° SW 21:28:19 72° WSW 21:33:22 10° NNW
COSMOS 2455 3.1 21:24:36 10° NW 21:30:32 59° WSW 21:31:27 53° SSW
STARLINK-1225 4.5 21:28:11 10° WNW 21:31:20 49° NW 21:31:20 49° NW
ASTEX 1 4.4 21:33:47 35° NE 21:33:47 35° NE 21:37:26 10° N
Cosmos 1980 Rocket 3.6 21:28:16 10° NNW 21:32:55 26° NE 21:33:52 24° ENE
Cosmos 1892 3.9 21:29:12 10° N 21:31:50 41° NNW 21:31:50 41° NNW
Cosmos 1954 Rocket 4.0 21:37:55 73° WSW 21:38:16 78° WNW 21:43:32 10° NNE
ATLAS CENTAUR R/B 3.3 21:39:42 10° NNW 21:42:19 22° NNE 21:42:19 22° NNE
Cosmos 1656 3.7 21:44:52 10° NNW 21:50:24 74° NE 21:50:24 74° NE
Resurs 01 Rocket 4.4 21:51:19 10° WSW 21:52:32 11° W 21:53:45 10° WNW
Cosmos 2151 4.2 21:48:34 10° N 21:51:14 38° N 21:51:14 38° N
Cosmos 1825 4.2 21:50:20 10° N 21:52:04 25° N 21:52:04 25° N
Cosmos 2082 Rocket 4.5 22:02:45 12° ENE 22:02:45 12° ENE 22:03:12 10° NE
ATLAS 5 CENTAUR R/B 3.2 22:02:17 30° NNE 22:02:17 30° NNE 22:04:55 10° NE
USA 32 4.2 21:55:52 10° N 22:00:37 67° NW 22:00:37 67° NW
COSMOS 2406 4.4 22:09:22 32° NE 22:09:22 32° NE 22:12:30 10° NE
Cosmos 1763 Rocket 4.0 22:04:30 10° NNW 22:08:49 56° WNW 22:08:49 56° WNW
SPOT 5 4.4 22:18:33 26° WNW 22:18:33 26° WNW 22:21:27 10° NW
Cosmos 1833 Rocket 4.3 22:21:36 23° NE 22:21:36 23° NE 22:23:51 10° NE
Cosmos 540 Rocket 4.3 22:25:38 10° NNW 22:29:24 49° NNW 22:29:24 49° NNW
Cosmos 2369 4.1 22:26:53 10° NNW 22:31:29 60° NNW 22:31:29 60° NNW
USA 234 3.7 22:27:28 10° ENE 22:33:53 60° NNW 22:40:17 10° W
Nadezhda 3 Rocket 4.1 22:37:09 71° WNW 22:37:09 71° WNW 22:43:14 10° N
Cosmos 841 Rocket 4.5 22:38:02 10° NNW 22:41:45 43° NW 22:41:45 43° NW
Meteor 2-3 Rocket 4.2 22:37:50 10° NNW 22:42:30 59° NNW 22:42:30 59° NNW
Terra 3.8 22:46:29 23° WNW 22:46:29 23° WNW 22:49:23 10° NW
Cosmos 1697 Rocket 3.4 22:44:29 10° NNW 22:48:42 50° NW 22:48:42 50° NW
Mayak 0.9 22:48:02 10° N 22:49:57 24° NNW 22:49:57 24° NNW
SL-16 R/B 3.4 22:55:39 10° NNW 23:00:32 34° NE 23:00:32 34° NE
CZ-4C R/B 2.8 22:55:42 10° NW 23:02:42 81° NE 23:02:42 81° NE
Cosmos 2360 Rocket 4.0 23:05:16 10° NNW 23:09:37 22° NE 23:10:44 21° NE
Cosmos 2322 Rocket 3.4 23:06:59 10° NNW 23:11:48 34° NE 23:11:48 34° NE
Cosmos 1980 Rocket 3.1 23:11:54 10° NNW 23:15:38 43° NW 23:15:38 43° NW
ATLAS CENTAUR R/B 4.4 23:18:22 10° NW 23:18:29 11° NW 23:18:29 11° NW
Cosmos 2344 4.3 23:27:26 10° NW 23:36:53 78° SW 23:38:51 65° S
Cosmos 2082 Rocket 3.2 23:44:35 43° NNE 23:44:35 43° NNE 23:48:21 10° NNE
ATLAS 5 CENTAUR R/B 4.1 23:43:41 17° NW 23:45:44 22° NNW 23:49:46 10° NE
